Hourly Data Report for October 04, 2013

All times are specified in Local Standard Time (LST). Add 1 hour to adjust for Daylight Saving Time where and when it is observed.

FREDERICTON
NEW BRUNSWICK

45°52'08.000" N
66°32'14.000" W
20.70 m
8101505
71700
YFC

Download Data

Hourly Data (October 2013)
Hourly Data Report for October 4, 2013
Temp Definition
°C
Dew Point Temp Definition
°C
Rel Hum Definition
%
Wind Dir Definition
10's deg

Wind Spd Definition
km/h
Visibility Definition
km
Stn Press Definition
kPa
Hmdx Definition


Wind Chill Definition


Weather Definition


TIME
00:00 Legend Double Dagger 9.7 6.1 78 21 8 16.1 101.22     LegendNANA
01:00 Legend Double Dagger 9.4 6.0 79 18 4 16.1 101.23     LegendNANA
02:00 Legend Double Dagger 7.8 5.6 86 15 4 16.1 101.21     LegendNANA
03:00 Legend Double Dagger 7.3 5.3 87 19 8 16.1 101.18     LegendNANA
04:00 Legend Double Dagger 6.9 5.1 88 28 8 16.1 101.21     LegendNANA
05:00 Legend Double Dagger 8.7 5.3 79 26 9 16.1 101.27     LegendNANA
06:00 Legend Double Dagger 8.3 5.3 81 26 5 16.1 101.31     LegendNANA
07:00 Legend Double Dagger 5.9 4.5 91 25 5 16.1 101.34     LegendNANA
08:00 Legend Double Dagger 10.8 6.5 75 26 9 16.1 101.41     LegendNANA
09:00 Legend Double Dagger 13.1 4.6 56 29 15 16.1 101.42     LegendNANA
10:00 Legend Double Dagger 13.9 2.4 46 29 18 16.1 101.40     LegendNANA
11:00 Legend Double Dagger 15.0 1.5 40 29 15 16.1 101.35     LegendNANA
12:00 Legend Double Dagger 16.6 -2.2 27 29 18 16.1 101.34     LegendNANA
13:00 Legend Double Dagger 16.0 -2.1 29 32 22 16.1 101.28     LegendNANA
14:00 Legend Double Dagger 16.8 -1.1 29 31 24 16.1 101.28     LegendNANA
15:00 Legend Double Dagger 15.8 -1.1 31 30 13 16.1 101.27     LegendNANA
16:00 Legend Double Dagger 15.9 -0.5 33 30 17 16.1 101.28     LegendNANA
17:00 Legend Double Dagger 15.8 0.1 34 27 15 16.1 101.31     LegendNANA
18:00 Legend Double Dagger 13.7 1.5 43 28 8 16.1 101.38     LegendNANA
19:00 Legend Double Dagger 12.0 2.3 51 29 8 16.1 101.41     LegendNANA
20:00 Legend Double Dagger 10.6 2.7 58 30 8 16.1 101.45     LegendNANA
21:00 Legend Double Dagger 10.0 3.5 64 32 9 16.1 101.53     LegendNANA
22:00 Legend Double Dagger 8.5 3.4 70 LegendMM 4 16.1 101.52     LegendNANA
23:00 Legend Double Dagger 5.3 3.0 85   0 16.1 101.57     LegendNANA

Notes on Data Quality.

Legend

  • E = Estimated
  • M = Missing
  • NA = Not Available
  • ‡ = Partner data that is not subject to review by the National Climate Archives
Date modified: